This is the latest recevied weather packets stored in our database for station/object NO3U. If no packets are shown the sender has not sent any weather packets the latest 10 day(s).
| Time | Temp. | Humidity | Pressure | Rain* | Wind** | Luminosity | Snow |
|---|---|---|---|---|---|---|---|
| 1777554480 | 6.67° C | 97% | 1012.3 hPa | 0 mm | - | 40 W/m² | - |
| 1777554177 | 6.67° C | 97% | 1012 hPa | 0 mm | - | 44 W/m² | - |
| 1777553874 | 6.11° C | 97% | 1012 hPa | 0 mm | - | 71 W/m² | - |
| 1777553569 | 6.11° C | 97% | 1012.2 hPa | 0 mm | - | 70 W/m² | - |
| 1777553265 | 6.11° C | 97% | 1012.1 hPa | 0 mm | - | 39 W/m² | - |
| 1777552962 | 6.11° C | 98% | 1011.8 hPa | 0 mm | - | 33 W/m² | - |
| 1777552657 | 6.11° C | 98% | 1012.1 hPa | 0 mm | - | 32 W/m² | - |
| 1777552354 | 6.11° C | 98% | 1012 hPa | 0 mm | - | 23 W/m² | - |
| 1777552050 | 6.67° C | 98% | 1011.8 hPa | 0 mm | - | 34 W/m² | - |
| 1777551747 | 6.67° C | 98% | 1011.8 hPa | 0 mm | - | 38 W/m² | - |
| 1777551445 | 6.67° C | 99% | 1011.6 hPa | 0 mm | - | 31 W/m² | - |
| 1777551141 | 6.67° C | 99% | 1011.6 hPa | 0 mm | - | 18 W/m² | - |
| 1777550839 | 6.67° C | 99% | 1011.7 hPa | 0 mm | - | 12 W/m² | - |
| 1777550535 | 6.67° C | 99% | 1011.3 hPa | 0 mm | - | 13 W/m² | - |
| 1777550231 | 7.22° C | 99% | 1011.4 hPa | 0 mm | - | 11 W/m² | - |
| 1777549928 | 7.22° C | 99% | 1011.2 hPa | 0 mm | - | 11 W/m² | - |
| 1777549624 | 7.22° C | 99% | 1011.4 hPa | 0 mm | - | 11 W/m² | - |
| 1777549319 | 7.22° C | 99% | 1011.1 hPa | 0 mm | - | 11 W/m² | - |
| 1777549017 | 7.22° C | 99% | 1011.1 hPa | 0 mm | - | 14 W/m² | - |
| 1777548713 | 7.78° C | 99% | 1011.1 hPa | 0 mm | - | 18 W/m² | - |
| 1777548410 | 7.78° C | 99% | 1010.9 hPa | 1.27 mm | - | 9 W/m² | - |
| 1777548107 | 7.78° C | 99% | 1010.8 hPa | 3.05 mm | - | 15 W/m² | - |
| 1777547802 | 7.78° C | 99% | 1010.8 hPa | 1.27 mm | - | 6 W/m² | - |
| 1777547499 | 7.78° C | 99% | 1010.9 hPa | 1.78 mm | - | 8 W/m² | - |
| 1777547197 | 8.33° C | 99% | 1010.7 hPa | 1.78 mm | - | 6 W/m² | - |
* Rain latest hour (hover to see other rain measurements)
** Current wind speed in m/s (hover to see current wind gust speed)